Change the Weather History Date:

Thursday, October 24, 2013

  Actual Average Record
Temperature  
Mean Temperature 66 °F -  
Max Temperature 73 °F 75 °F 93 °F (2007)
Min Temperature 57 °F 52 °F 48 °F (1996)
Cooling Degree Days 1    
Growing Degree Days 16 (Base 50)    
Moisture  
Dew Point 52 °F    
Average Humidity 69    
Maximum Humidity 81    
Minimum Humidity 43    
Precipitation  
Precipitation 0.00 in - - ()
Sea Level Pressure  
Sea Level Pressure 29.98 in    
Wind  
Wind Speed 3 mph (SE)    
Max Wind Speed 10 mph    
Max Gust Speed -    
Visibility 7 miles    
Events      
Averages and records for this station are not official NWS values.
T = Trace of Precipitation, MM = Missing Value Source: NWS Daily Summary

Daily Weather History Graph

Daily Weather History Graph

Search for Another Location

Airport or City:

Trip Planner

Search our weather history database for the weather conditions in past years. The results will help you decide how hot, cold, wet, or windy it might be!

Date:

Astronomy

Oct. 24, 2013 Rise Set
Actual Time 7:06 AM PDT 6:08 PM PDT
Civil Twilight 6:41 AM PDT 6:34 PM PDT
Nautical Twilight 6:12 AM PDT 7:03 PM PDT
Astronomical Twilight 5:42 AM PDT 7:32 PM PDT
Moon 10:42 PM PDT (10/24) 12:05 PM PDT (10/24)
Length of Visible Light 11h 52m
Length of Day
11h 01m
Waning Gibbous, 70% of the Moon is Illuminated
Oct 24
Waning Gibbous
Oct 26
Last Quarter
Nov 3
New
Nov 9
First Quarter
Nov 17
Full

Hourly Weather History & Observations

Time (PDT) Temp. Dew Point Humidity Pressure Visibility Wind Dir Wind Speed Gust Speed Precip Events Conditions
12:51 AM 60.1 °F 53.1 °F 78% 29.95 in 7.0 mi Calm Calm - N/A   Overcast
1:51 AM 60.1 °F 53.1 °F 78% 29.96 in 6.0 mi ESE 3.5 mph - N/A   Haze
2:51 AM 60.1 °F 53.1 °F 78% 29.95 in 6.0 mi South 3.5 mph - N/A   Haze
3:51 AM 60.1 °F 53.1 °F 78% 29.94 in 5.0 mi Calm Calm - N/A   Haze
4:51 AM 60.1 °F 53.1 °F 78% 29.94 in 5.0 mi SE 4.6 mph - N/A   Haze
5:51 AM 59.0 °F 53.1 °F 81% 29.96 in 5.0 mi South 5.8 mph - N/A   Haze
6:51 AM 59.0 °F 53.1 °F 81% 29.97 in 5.0 mi South 3.5 mph - N/A   Haze
7:51 AM 60.1 °F 52.0 °F 75% 29.99 in 4.0 mi Calm Calm - N/A   Haze
8:51 AM 60.1 °F 52.0 °F 75% 30.00 in 4.0 mi Calm Calm - N/A   Haze
8:58 AM 60.8 °F 51.8 °F 72% 30.01 in 4.0 mi Calm Calm - N/A   Haze
9:51 AM 62.1 °F 52.0 °F 70% 30.01 in 4.0 mi Calm Calm - N/A   Haze
10:51 AM 63.0 °F 51.1 °F 65% 30.02 in 4.0 mi Calm Calm - N/A   Haze
11:51 AM 66.0 °F 51.1 °F 59% 30.00 in 5.0 mi Variable 3.5 mph - N/A   Haze
12:00 PM 66.2 °F 51.8 °F 60% 30.01 in 5.0 mi Variable 3.5 mph - N/A   Haze
12:51 PM 69.1 °F 51.1 °F 53% 29.97 in 5.0 mi SE 4.6 mph - N/A   Haze
1:51 PM 72.0 °F 50.0 °F 46% 29.94 in 6.0 mi Variable 3.5 mph - N/A   Haze
2:51 PM 73.9 °F 50.0 °F 43% 29.93 in 8.0 mi SE 5.8 mph - N/A   Clear
3:51 PM 70.0 °F 52.0 °F 53% 29.94 in 10.0 mi SSE 10.4 mph - N/A   Clear
4:51 PM 68.0 °F 52.0 °F 56% 29.94 in 10.0 mi SE 6.9 mph - N/A   Clear
5:51 PM 66.9 °F 52.0 °F 59% 29.95 in 10.0 mi ESE 5.8 mph - N/A   Clear
6:51 PM 63.0 °F 52.0 °F 67% 29.98 in 10.0 mi SE 5.8 mph - N/A   Clear
7:51 PM 62.1 °F 52.0 °F 70% 30.00 in 10.0 mi SE 4.6 mph - N/A   Clear
8:51 PM 61.0 °F 52.0 °F 72% 30.01 in 10.0 mi East 3.5 mph - N/A   Clear
9:51 PM 60.1 °F 53.1 °F 78% 30.03 in 9.0 mi Calm Calm - N/A   Clear
10:51 PM 59.0 °F 53.1 °F 81% 30.04 in 8.0 mi Calm Calm - N/A   Clear
11:51 PM 57.9 °F 52.0 °F 81% 30.03 in 7.0 mi Calm Calm - N/A   Clear